Location: Antioch
(38.0049°N, 121.8058°W)
Time: 02:52:14
(UTC+00:00)

Cosmos 1354 Rocket - Pass Details

Date: 21 May 2026
Orbit: 761 x 778 km, 74.0° (Epoch: 9 June)

Event Time Altitude Azimuth Distance (km) Brightness Sun altitude
Rises 06:43:39 0° 323° (NW) 3,231 8.4 -28.8°
Reaches altitude 10° 06:46:46 10° 304° (NW) 2,298 7.1 -29.0°
Maximum altitude 06:50:05 17° 264° (W) 1,834 6.1 -29.3°
Enters shadow 06:50:32 17° 258° (WSW) 1,843 6.0 -29.3°
